Location: Lafig�re
(44.4503°N, 4.0357°E)
Time: 15:42:59
(UTC+00:00)

Transit 2A Rocket - Pass Details

Date: 22 January 2021
Orbit: 594 x 908 km, 66.7° (Epoch: 06 March)

Event Time Altitude Azimuth Distance (km) Brightness Sun altitude
Rises 19:19:33 0° 338° (NNW) 2,961 8.3 -28.3°
Enters shadow 19:21:42 - 352° (N) 2,289 7.6 -28.7°
Reaches altitude 10° 19:22:50 10° 2° (N) 2,000 - -28.9°
Maximum altitude 19:25:23 15° 37° (NE) 1,673 - -29.4°
Drops below altitude 10° 19:27:53 10° 73° (ENE) 1,945 - -29.8°
Sets 19:31:00 0° 97° (E) 2,830 - -30.4°
